owner,sensor,date,latitude,longitude,vertical_datum,mass_concentration_of_oxygen_in_sea_water,qcFlag 
SCCF RECON,ioos:station:SCCF:16:1,2009-08-01T00:00:00Z,26.4345,-81.9647,2.313,6.53,1111122 
SCCF RECON,ioos:station:SCCF:16:1,2009-08-01T01:00:00Z,26.4345,-81.9647,2.376,6.74,1111122 
SCCF RECON,ioos:station:SCCF:16:1,2009-08-01T02:00:00Z,26.4345,-81.9647,2.43,6.56,1111122 
SCCF RECON,ioos:station:SCCF:16:1,2009-08-01T03:00:00Z,26.4345,-81.9647,2.501,6.33,1111122 
SCCF RECON,ioos:station:SCCF:16:1,2009-08-01T04:00:00Z,26.4345,-81.9647,2.54,5.92,1111122 
SCCF RECON,ioos:station:SCCF:16:1,2009-08-01T05:00:00Z,26.4345,-81.9647,2.561,5.88,1111122 
SCCF RECON,ioos:station:SCCF:16:1,2009-08-01T06:00:00Z,26.4345,-81.9647,2.521,5.8,1111122 
SCCF RECON,ioos:station:SCCF:16:1,2009-08-01T07:00:00Z,26.4345,-81.9647,2.446,5.49,1111122 
SCCF RECON,ioos:station:SCCF:16:1,2009-08-01T08:00:00Z,26.4345,-81.9647,2.431,5.61,1111122 
SCCF RECON,ioos:station:SCCF:16:1,2009-08-01T09:00:00Z,26.4345,-81.9647,2.464,6.02,1111122 
SCCF RECON,ioos:station:SCCF:16:1,2009-08-01T10:00:00Z,26.4345,-81.9647,2.536,6.02,1111122 
SCCF RECON,ioos:station:SCCF:16:1,2009-08-01T11:00:00Z,26.4345,-81.9647,2.638,5.99,1111122 
SCCF RECON,ioos:station:SCCF:16:1,2009-08-01T12:00:00Z,26.4345,-81.9647,2.678,5.96,1111122 
SCCF RECON,ioos:station:SCCF:16:1,2009-08-01T13:00:00Z,26.4345,-81.9647,2.735,5.95,1111122 
SCCF RECON,ioos:station:SCCF:16:1,2009-08-01T14:00:00Z,26.4345,-81.9647,2.776,6.07,1111122 
SCCF RECON,ioos:station:SCCF:16:1,2009-08-01T15:00:00Z,26.4345,-81.9647,2.73,6.1,1111122 
SCCF RECON,ioos:station:SCCF:16:1,2009-08-01T16:00:00Z,26.4345,-81.9647,2.633,5.8,1111122 
SCCF RECON,ioos:station:SCCF:16:1,2009-08-01T17:00:00Z,26.4345,-81.9647,2.449,6.32,1111122 
SCCF RECON,ioos:station:SCCF:16:1,2009-08-01T18:00:00Z,26.4345,-81.9647,2.313,6.52,1111122 
SCCF RECON,ioos:station:SCCF:16:1,2009-08-01T19:00:00Z,26.4345,-81.9647,2.208,6.49,1111122 
SCCF RECON,ioos:station:SCCF:16:1,2009-08-01T20:00:00Z,26.4345,-81.9647,2.049,6.64,1111122 
SCCF RECON,ioos:station:SCCF:16:1,2009-08-01T21:00:00Z,26.4345,-81.9647,1.994,6.24,1111122 
SCCF RECON,ioos:station:SCCF:16:1,2009-08-01T22:00:00Z,26.4345,-81.9647,2.041,6.26,1111122 
SCCF RECON,ioos:station:SCCF:16:1,2009-08-01T23:00:00Z,26.4345,-81.9647,2.127,6.24,1111122 
SCCF RECON,ioos:station:SCCF:16:1,2009-08-02T00:00:00Z,26.4345,-81.9647,2.217,6.09,1111122 
SCCF RECON,ioos:station:SCCF:16:1,2009-08-02T01:00:00Z,26.4345,-81.9647,2.418,6.47,1111122 
SCCF RECON,ioos:station:SCCF:16:1,2009-08-02T02:00:00Z,26.4345,-81.9647,2.448,6.75,1111122 
SCCF RECON,ioos:station:SCCF:16:1,2009-08-02T03:00:00Z,26.4345,-81.9647,2.539,6.65,1111122 
SCCF RECON,ioos:station:SCCF:16:1,2009-08-02T04:00:00Z,26.4345,-81.9647,2.623,6.51,1111122 
SCCF RECON,ioos:station:SCCF:16:1,2009-08-02T05:00:00Z,26.4345,-81.9647,2.575,6.36,1111122 
SCCF RECON,ioos:station:SCCF:16:1,2009-08-02T06:00:00Z,26.4345,-81.9647,2.54,6.2,1111122 
SCCF RECON,ioos:station:SCCF:16:1,2009-08-02T07:00:00Z,26.4345,-81.9647,2.5,6.04,1111122 
SCCF RECON,ioos:station:SCCF:16:1,2009-08-02T08:00:00Z,26.4345,-81.9647,2.441,5.82,1111122 
SCCF RECON,ioos:station:SCCF:16:1,2009-08-02T09:00:00Z,26.4345,-81.9647,2.447,6.16,1111122 
SCCF RECON,ioos:station:SCCF:16:1,2009-08-02T10:00:00Z,26.4345,-81.9647,2.471,6.2,1111122 
SCCF RECON,ioos:station:SCCF:16:1,2009-08-02T11:00:00Z,26.4345,-81.9647,2.569,6.16,1111122 
SCCF RECON,ioos:station:SCCF:16:1,2009-08-02T12:00:00Z,26.4345,-81.9647,2.661,6.2,1111122 
SCCF RECON,ioos:station:SCCF:16:1,2009-08-02T13:00:00Z,26.4345,-81.9647,2.709,6.05,1111122 
SCCF RECON,ioos:station:SCCF:16:1,2009-08-02T14:00:00Z,26.4345,-81.9647,2.756,5.87,1111122 
SCCF RECON,ioos:station:SCCF:16:1,2009-08-02T15:00:00Z,26.4345,-81.9647,2.788,6.14,1111122 
SCCF RECON,ioos:station:SCCF:16:1,2009-08-02T16:00:00Z,26.4345,-81.9647,2.75,6.34,1111122 
SCCF RECON,ioos:station:SCCF:16:1,2009-08-02T17:00:00Z,26.4345,-81.9647,2.632,6.08,1111122 
SCCF RECON,ioos:station:SCCF:16:1,2009-08-02T18:00:00Z,26.4345,-81.9647,2.494,6.36,1111122 
SCCF RECON,ioos:station:SCCF:16:1,2009-08-02T19:00:00Z,26.4345,-81.9647,2.303,6.61,1111122 
SCCF RECON,ioos:station:SCCF:16:1,2009-08-02T20:00:00Z,26.4345,-81.9647,2.163,6.67,1111122 
SCCF RECON,ioos:station:SCCF:16:1,2009-08-02T21:00:00Z,26.4345,-81.9647,2.061,7.13,1111122 
SCCF RECON,ioos:station:SCCF:16:1,2009-08-02T22:00:00Z,26.4345,-81.9647,1.996,6.85,1111122 
SCCF RECON,ioos:station:SCCF:16:1,2009-08-02T23:00:00Z,26.4345,-81.9647,2.066,6.73,1111122 
SCCF RECON,ioos:station:SCCF:16:1,2009-08-03T00:00:00Z,26.4345,-81.9647,2.229,6.96,1111122 
SCCF RECON,ioos:station:SCCF:16:1,2009-08-03T01:00:00Z,26.4345,-81.9647,2.355,6.45,1111122 
SCCF RECON,ioos:station:SCCF:16:1,2009-08-03T02:00:00Z,26.4345,-81.9647,2.449,6.8,1111122 
SCCF RECON,ioos:station:SCCF:16:1,2009-08-03T03:00:00Z,26.4345,-81.9647,2.555,6.8,1111122 
SCCF RECON,ioos:station:SCCF:16:1,2009-08-03T04:00:00Z,26.4345,-81.9647,2.668,6.64,1111122 
SCCF RECON,ioos:station:SCCF:16:1,2009-08-03T05:00:00Z,26.4345,-81.9647,2.707,6.5,1111122 
SCCF RECON,ioos:station:SCCF:16:1,2009-08-03T06:00:00Z,26.4345,-81.9647,2.628,6.3,1111122 
SCCF RECON,ioos:station:SCCF:16:1,2009-08-03T07:00:00Z,26.4345,-81.9647,2.551,5.79,1111122 
SCCF RECON,ioos:station:SCCF:16:1,2009-08-03T08:00:00Z,26.4345,-81.9647,2.498,6.07,1111122 
SCCF RECON,ioos:station:SCCF:16:1,2009-08-03T09:00:00Z,26.4345,-81.9647,2.449,6.1,1111122 
SCCF RECON,ioos:station:SCCF:16:1,2009-08-03T10:00:00Z,26.4345,-81.9647,2.43,6.22,1111122 
SCCF RECON,ioos:station:SCCF:16:1,2009-08-03T11:00:00Z,26.4345,-81.9647,2.534,6.05,1111122 
SCCF RECON,ioos:station:SCCF:16:1,2009-08-03T12:00:00Z,26.4345,-81.9647,2.66,6.29,1111122 
SCCF RECON,ioos:station:SCCF:16:1,2009-08-03T13:00:00Z,26.4345,-81.9647,2.787,6.34,1111122 
SCCF RECON,ioos:station:SCCF:16:1,2009-08-03T14:00:00Z,26.4345,-81.9647,2.848,6.18,1111122 
SCCF RECON,ioos:station:SCCF:16:1,2009-08-03T15:00:00Z,26.4345,-81.9647,2.864,6.21,1111122 
SCCF RECON,ioos:station:SCCF:16:1,2009-08-03T16:00:00Z,26.4345,-81.9647,2.826,6.39,1111122 
SCCF RECON,ioos:station:SCCF:16:1,2009-08-03T17:00:00Z,26.4345,-81.9647,2.731,6.29,1111122 
SCCF RECON,ioos:station:SCCF:16:1,2009-08-03T18:00:00Z,26.4345,-81.9647,2.598,6.47,1111122 
SCCF RECON,ioos:station:SCCF:16:1,2009-08-03T19:00:00Z,26.4345,-81.9647,2.422,6.69,1111122 
SCCF RECON,ioos:station:SCCF:16:1,2009-08-03T20:00:00Z,26.4345,-81.9647,2.241,6.64,1111122 
SCCF RECON,ioos:station:SCCF:16:1,2009-08-03T21:00:00Z,26.4345,-81.9647,2.093,7.07,1111122 
SCCF RECON,ioos:station:SCCF:16:1,2009-08-03T22:00:00Z,26.4345,-81.9647,1.998,6.81,1111122 
SCCF RECON,ioos:station:SCCF:16:1,2009-08-03T23:00:00Z,26.4345,-81.9647,1.974,6.78,1111122 
SCCF RECON,ioos:station:SCCF:16:1,2009-08-04T00:00:00Z,26.4345,-81.9647,2.085,6.95,1111122 
SCCF RECON,ioos:station:SCCF:16:1,2009-08-04T01:00:00Z,26.4345,-81.9647,2.282,7.04,1111122 
SCCF RECON,ioos:station:SCCF:16:1,2009-08-04T02:00:00Z,26.4345,-81.9647,2.399,7.28,1111122 
SCCF RECON,ioos:station:SCCF:16:1,2009-08-04T03:00:00Z,26.4345,-81.9647,2.513,6.91,1111122 
SCCF RECON,ioos:station:SCCF:16:1,2009-08-04T04:00:00Z,26.4345,-81.9647,2.62,6.61,1111122 
SCCF RECON,ioos:station:SCCF:16:1,2009-08-04T05:00:00Z,26.4345,-81.9647,2.648,6.6,1111122 
SCCF RECON,ioos:station:SCCF:16:1,2009-08-04T06:00:00Z,26.4345,-81.9647,2.635,6.56,1111122 
SCCF RECON,ioos:station:SCCF:16:1,2009-08-04T07:00:00Z,26.4345,-81.9647,2.599,6.54,1111122 
SCCF RECON,ioos:station:SCCF:16:1,2009-08-04T08:00:00Z,26.4345,-81.9647,2.492,6.21,1111122 
SCCF RECON,ioos:station:SCCF:16:1,2009-08-04T09:00:00Z,26.4345,-81.9647,2.408,6.41,1111122 
SCCF RECON,ioos:station:SCCF:16:1,2009-08-04T10:00:00Z,26.4345,-81.9647,2.39,6.15,1111122 
SCCF RECON,ioos:station:SCCF:16:1,2009-08-04T11:00:00Z,26.4345,-81.9647,2.444,5.96,1111122 
SCCF RECON,ioos:station:SCCF:16:1,2009-08-04T12:00:00Z,26.4345,-81.9647,2.551,6.12,1111122 
SCCF RECON,ioos:station:SCCF:16:1,2009-08-04T13:00:00Z,26.4345,-81.9647,2.698,6.3,1111122 
SCCF RECON,ioos:station:SCCF:16:1,2009-08-04T14:00:00Z,26.4345,-81.9647,2.809,6.49,1111122 
SCCF RECON,ioos:station:SCCF:16:1,2009-08-04T15:00:00Z,26.4345,-81.9647,2.866,6.22,1111122 
SCCF RECON,ioos:station:SCCF:16:1,2009-08-04T16:00:00Z,26.4345,-81.9647,2.848,6.09,1111122 
SCCF RECON,ioos:station:SCCF:16:1,2009-08-04T17:00:00Z,26.4345,-81.9647,2.8,6.2,1111122 
SCCF RECON,ioos:station:SCCF:16:1,2009-08-04T18:00:00Z,26.4345,-81.9647,2.688,6.31,1111122 
SCCF RECON,ioos:station:SCCF:16:1,2009-08-04T19:00:00Z,26.4345,-81.9647,2.523,6.52,1111122 
SCCF RECON,ioos:station:SCCF:16:1,2009-08-04T20:00:00Z,26.4345,-81.9647,2.355,6.71,1111122 
SCCF RECON,ioos:station:SCCF:16:1,2009-08-04T21:00:00Z,26.4345,-81.9647,2.183,6.7,1111122 
SCCF RECON,ioos:station:SCCF:16:1,2009-08-04T22:00:00Z,26.4345,-81.9647,2.014,6.96,1111122 
SCCF RECON,ioos:station:SCCF:16:1,2009-08-04T23:00:00Z,26.4345,-81.9647,1.918,6.75,1111122 
SCCF RECON,ioos:station:SCCF:16:1,2009-08-05T00:00:00Z,26.4345,-81.9647,1.963,7.06,1111122 
SCCF RECON,ioos:station:SCCF:16:1,2009-08-05T01:00:00Z,26.4345,-81.9647,2.152,6.99,1111122 
SCCF RECON,ioos:station:SCCF:16:1,2009-08-05T02:00:00Z,26.4345,-81.9647,2.359,6.91,1111122 
SCCF RECON,ioos:station:SCCF:16:1,2009-08-05T03:00:00Z,26.4345,-81.9647,2.483,6.62,1111122 
SCCF RECON,ioos:station:SCCF:16:1,2009-08-05T04:00:00Z,26.4345,-81.9647,2.534,6.6,1111122 
SCCF RECON,ioos:station:SCCF:16:1,2009-08-05T05:00:00Z,26.4345,-81.9647,2.64,6.59,1111122 
SCCF RECON,ioos:station:SCCF:16:1,2009-08-05T06:00:00Z,26.4345,-81.9647,2.672,6.66,1111122 
SCCF RECON,ioos:station:SCCF:16:1,2009-08-05T07:00:00Z,26.4345,-81.9647,2.595,6.47,1111122 
SCCF RECON,ioos:station:SCCF:16:1,2009-08-05T08:00:00Z,26.4345,-81.9647,2.519,6.25,1111122 
SCCF RECON,ioos:station:SCCF:16:1,2009-08-05T09:00:00Z,26.4345,-81.9647,2.464,6.23,1111122 
SCCF RECON,ioos:station:SCCF:16:1,2009-08-05T10:00:00Z,26.4345,-81.9647,2.396,6.16,1111122 
SCCF RECON,ioos:station:SCCF:16:1,2009-08-05T11:00:00Z,26.4345,-81.9647,2.404,6.15,1111122 
SCCF RECON,ioos:station:SCCF:16:1,2009-08-05T12:00:00Z,26.4345,-81.9647,2.447,6.21,1111122 
SCCF RECON,ioos:station:SCCF:16:1,2009-08-05T13:00:00Z,26.4345,-81.9647,2.605,6.34,1111122 
SCCF RECON,ioos:station:SCCF:16:1,2009-08-05T14:00:00Z,26.4345,-81.9647,2.738,6.36,1111122 
SCCF RECON,ioos:station:SCCF:16:1,2009-08-05T15:00:00Z,26.4345,-81.9647,2.849,6.27,1111122 
SCCF RECON,ioos:station:SCCF:16:1,2009-08-05T16:00:00Z,26.4345,-81.9647,2.898,6.3,1111122 
SCCF RECON,ioos:station:SCCF:16:1,2009-08-05T17:00:00Z,26.4345,-81.9647,2.917,6.34,1111122 
SCCF RECON,ioos:station:SCCF:16:1,2009-08-05T18:00:00Z,26.4345,-81.9647,2.794,6.4,1111122 
SCCF RECON,ioos:station:SCCF:16:1,2009-08-05T19:00:00Z,26.4345,-81.9647,2.674,6.26,1111122 
SCCF RECON,ioos:station:SCCF:16:1,2009-08-05T20:00:00Z,26.4345,-81.9647,2.399,6.4,1111122 
SCCF RECON,ioos:station:SCCF:16:1,2009-08-05T21:00:00Z,26.4345,-81.9647,2.222,6.4,1111122 
SCCF RECON,ioos:station:SCCF:16:1,2009-08-05T22:00:00Z,26.4345,-81.9647,2.124,6.38,1111122 
SCCF RECON,ioos:station:SCCF:16:1,2009-08-05T23:00:00Z,26.4345,-81.9647,2.055,6.22,1111122 
SCCF RECON,ioos:station:SCCF:16:1,2009-08-06T00:00:00Z,26.4345,-81.9647,1.957,6.43,1111122 
SCCF RECON,ioos:station:SCCF:16:1,2009-08-06T01:00:00Z,26.4345,-81.9647,2.067,6.42,1111122 
SCCF RECON,ioos:station:SCCF:16:1,2009-08-06T02:00:00Z,26.4345,-81.9647,2.259,6.38,1111122 
SCCF RECON,ioos:station:SCCF:16:1,2009-08-06T03:00:00Z,26.4345,-81.9647,2.457,6.17,1111122 
SCCF RECON,ioos:station:SCCF:16:1,2009-08-06T04:00:00Z,26.4345,-81.9647,2.596,6.16,1111122 
SCCF RECON,ioos:station:SCCF:16:1,2009-08-06T05:00:00Z,26.4345,-81.9647,2.657,6.23,1111122 
SCCF RECON,ioos:station:SCCF:16:1,2009-08-06T06:00:00Z,26.4345,-81.9647,2.722,6.39,1111122 
SCCF RECON,ioos:station:SCCF:16:1,2009-08-06T07:00:00Z,26.4345,-81.9647,2.638,6.32,1111122 
SCCF RECON,ioos:station:SCCF:16:1,2009-08-06T08:00:00Z,26.4345,-81.9647,2.578,6.01,1111122 
SCCF RECON,ioos:station:SCCF:16:1,2009-08-06T09:00:00Z,26.4345,-81.9647,2.467,5.44,1111122 
SCCF RECON,ioos:station:SCCF:16:1,2009-08-06T10:00:00Z,26.4345,-81.9647,2.405,5.8,1111122 
SCCF RECON,ioos:station:SCCF:16:1,2009-08-06T11:00:00Z,26.4345,-81.9647,2.362,5.36,1111122 
SCCF RECON,ioos:station:SCCF:16:1,2009-08-06T12:00:00Z,26.4345,-81.9647,2.405,5.45,1111122 
SCCF RECON,ioos:station:SCCF:16:1,2009-08-06T13:00:00Z,26.4345,-81.9647,2.501,5.58,1111122 
SCCF RECON,ioos:station:SCCF:16:1,2009-08-06T14:00:00Z,26.4345,-81.9647,2.782,5.93,1111122 
SCCF RECON,ioos:station:SCCF:16:1,2009-08-06T15:00:00Z,26.4345,-81.9647,2.774,6.0,1111122 
SCCF RECON,ioos:station:SCCF:16:1,2009-08-06T16:00:00Z,26.4345,-81.9647,2.885,6.0,1111122 
SCCF RECON,ioos:station:SCCF:16:1,2009-08-06T17:00:00Z,26.4345,-81.9647,2.936,5.8,1111122 
SCCF RECON,ioos:station:SCCF:16:1,2009-08-06T18:00:00Z,26.4345,-81.9647,3.027,5.85,1111122 
SCCF RECON,ioos:station:SCCF:16:1,2009-08-06T19:00:00Z,26.4345,-81.9647,2.579,5.77,1111122 
SCCF RECON,ioos:station:SCCF:16:1,2009-08-06T20:00:00Z,26.4345,-81.9647,2.539,5.93,1111122 
SCCF RECON,ioos:station:SCCF:16:1,2009-08-06T21:00:00Z,26.4345,-81.9647,2.45,6.0,1111122 
SCCF RECON,ioos:station:SCCF:16:1,2009-08-06T22:00:00Z,26.4345,-81.9647,2.217,5.78,1111122 
SCCF RECON,ioos:station:SCCF:16:1,2009-08-06T23:00:00Z,26.4345,-81.9647,2.076,5.54,1111122 
SCCF RECON,ioos:station:SCCF:16:1,2009-08-07T00:00:00Z,26.4345,-81.9647,2.005,5.44,1111122 
SCCF RECON,ioos:station:SCCF:16:1,2009-08-07T01:00:00Z,26.4345,-81.9647,2.046,5.38,1111122 
SCCF RECON,ioos:station:SCCF:16:1,2009-08-07T02:00:00Z,26.4345,-81.9647,2.246,5.41,1111122 
SCCF RECON,ioos:station:SCCF:16:1,2009-08-07T03:00:00Z,26.4345,-81.9647,2.41,5.41,1111122 
SCCF RECON,ioos:station:SCCF:16:1,2009-08-07T04:00:00Z,26.4345,-81.9647,2.552,5.6,1111122 
SCCF RECON,ioos:station:SCCF:16:1,2009-08-07T05:00:00Z,26.4345,-81.9647,2.675,5.7,1111122 
SCCF RECON,ioos:station:SCCF:16:1,2009-08-07T06:00:00Z,26.4345,-81.9647,2.745,5.62,1111122 
SCCF RECON,ioos:station:SCCF:16:1,2009-08-07T07:00:00Z,26.4345,-81.9647,2.69,5.46,1111122 
SCCF RECON,ioos:station:SCCF:16:1,2009-08-07T08:00:00Z,26.4345,-81.9647,2.617,5.31,1111122 
SCCF RECON,ioos:station:SCCF:16:1,2009-08-07T09:00:00Z,26.4345,-81.9647,2.57,5.36,1111122 
SCCF RECON,ioos:station:SCCF:16:1,2009-08-07T10:00:00Z,26.4345,-81.9647,2.451,5.28,1111122 
SCCF RECON,ioos:station:SCCF:16:1,2009-08-07T11:00:00Z,26.4345,-81.9647,2.348,5.18,1111122 
SCCF RECON,ioos:station:SCCF:16:1,2009-08-07T12:00:00Z,26.4345,-81.9647,2.332,5.06,1111122 
SCCF RECON,ioos:station:SCCF:16:1,2009-08-07T13:00:00Z,26.4345,-81.9647,2.418,4.9,1111122 
SCCF RECON,ioos:station:SCCF:16:1,2009-08-07T14:00:00Z,26.4345,-81.9647,2.653,5.07,1111122 
SCCF RECON,ioos:station:SCCF:16:1,2009-08-07T15:00:00Z,26.4345,-81.9647,2.784,5.44,1111122 
SCCF RECON,ioos:station:SCCF:16:1,2009-08-07T16:00:00Z,26.4345,-81.9647,2.872,5.64,1111122 
SCCF RECON,ioos:station:SCCF:16:1,2009-08-07T17:00:00Z,26.4345,-81.9647,2.892,5.64,1111122 
SCCF RECON,ioos:station:SCCF:16:1,2009-08-07T18:00:00Z,26.4345,-81.9647,2.897,5.59,1111122 
SCCF RECON,ioos:station:SCCF:16:1,2009-08-07T19:00:00Z,26.4345,-81.9647,2.869,5.83,1111122 
SCCF RECON,ioos:station:SCCF:16:1,2009-08-07T20:00:00Z,26.4345,-81.9647,2.687,5.83,1111122 
SCCF RECON,ioos:station:SCCF:16:1,2009-08-07T21:00:00Z,26.4345,-81.9647,2.561,5.72,1111122 
SCCF RECON,ioos:station:SCCF:16:1,2009-08-07T22:00:00Z,26.4345,-81.9647,2.401,5.8,1111122 
SCCF RECON,ioos:station:SCCF:16:1,2009-08-07T23:00:00Z,26.4345,-81.9647,2.208,5.66,1111122 
SCCF RECON,ioos:station:SCCF:16:1,2009-08-08T00:00:00Z,26.4345,-81.9647,2.075,5.6,1111122 
SCCF RECON,ioos:station:SCCF:16:1,2009-08-08T01:00:00Z,26.4345,-81.9647,2.106,5.39,1111122 
SCCF RECON,ioos:station:SCCF:16:1,2009-08-08T02:00:00Z,26.4345,-81.9647,2.19,5.3,1111122 
SCCF RECON,ioos:station:SCCF:16:1,2009-08-08T03:00:00Z,26.4345,-81.9647,2.352,5.46,1111122 
SCCF RECON,ioos:station:SCCF:16:1,2009-08-08T04:00:00Z,26.4345,-81.9647,2.545,5.52,1111122 
SCCF RECON,ioos:station:SCCF:16:1,2009-08-08T05:00:00Z,26.4345,-81.9647,2.732,5.55,1111122 
SCCF RECON,ioos:station:SCCF:16:1,2009-08-08T06:00:00Z,26.4345,-81.9647,2.765,5.62,1111122 
SCCF RECON,ioos:station:SCCF:16:1,2009-08-08T07:00:00Z,26.4345,-81.9647,2.777,5.59,1111122 
SCCF RECON,ioos:station:SCCF:16:1,2009-08-08T08:00:00Z,26.4345,-81.9647,2.676,5.69,1111122 
SCCF RECON,ioos:station:SCCF:16:1,2009-08-08T09:00:00Z,26.4345,-81.9647,2.586,5.47,1111122 
SCCF RECON,ioos:station:SCCF:16:1,2009-08-08T10:00:00Z,26.4345,-81.9647,2.499,5.19,1111122 
SCCF RECON,ioos:station:SCCF:16:1,2009-08-08T11:00:00Z,26.4345,-81.9647,2.359,5.35,1111122 
SCCF RECON,ioos:station:SCCF:16:1,2009-08-08T12:00:00Z,26.4345,-81.9647,2.31,5.09,1111122 
SCCF RECON,ioos:station:SCCF:16:1,2009-08-08T13:00:00Z,26.4345,-81.9647,2.368,4.79,1111122 
SCCF RECON,ioos:station:SCCF:16:1,2009-08-08T14:00:00Z,26.4345,-81.9647,2.474,5.09,1111122 
SCCF RECON,ioos:station:SCCF:16:1,2009-08-08T15:00:00Z,26.4345,-81.9647,2.607,5.32,1111122 
SCCF RECON,ioos:station:SCCF:16:1,2009-08-08T16:00:00Z,26.4345,-81.9647,2.737,5.52,1111122 
SCCF RECON,ioos:station:SCCF:16:1,2009-08-08T17:00:00Z,26.4345,-81.9647,2.853,5.73,1111122 
SCCF RECON,ioos:station:SCCF:16:1,2009-08-08T18:00:00Z,26.4345,-81.9647,2.892,5.58,1111122 
SCCF RECON,ioos:station:SCCF:16:1,2009-08-08T19:00:00Z,26.4345,-81.9647,2.86,5.97,1111122 
SCCF RECON,ioos:station:SCCF:16:1,2009-08-08T20:00:00Z,26.4345,-81.9647,2.803,6.24,1111122 
SCCF RECON,ioos:station:SCCF:16:1,2009-08-08T21:00:00Z,26.4345,-81.9647,2.635,6.53,1111122 
SCCF RECON,ioos:station:SCCF:16:1,2009-08-08T22:00:00Z,26.4345,-81.9647,2.48,6.68,1111122 
SCCF RECON,ioos:station:SCCF:16:1,2009-08-08T23:00:00Z,26.4345,-81.9647,2.322,6.13,1111122 
SCCF RECON,ioos:station:SCCF:16:1,2009-08-09T00:00:00Z,26.4345,-81.9647,2.196,5.99,1111122 
SCCF RECON,ioos:station:SCCF:16:1,2009-08-09T01:00:00Z,26.4345,-81.9647,2.151,6.12,1111122 
SCCF RECON,ioos:station:SCCF:16:1,2009-08-09T02:00:00Z,26.4345,-81.9647,2.225,6.21,1111122 
SCCF RECON,ioos:station:SCCF:16:1,2009-08-09T03:00:00Z,26.4345,-81.9647,2.358,6.24,1111122 
SCCF RECON,ioos:station:SCCF:16:1,2009-08-09T04:00:00Z,26.4345,-81.9647,2.585,5.99,1111122 
SCCF RECON,ioos:station:SCCF:16:1,2009-08-09T05:00:00Z,26.4345,-81.9647,2.603,5.94,1111122 
SCCF RECON,ioos:station:SCCF:16:1,2009-08-09T06:00:00Z,26.4345,-81.9647,2.705,5.88,1111122 
SCCF RECON,ioos:station:SCCF:16:1,2009-08-09T07:00:00Z,26.4345,-81.9647,2.786,5.89,1111122 
SCCF RECON,ioos:station:SCCF:16:1,2009-08-09T08:00:00Z,26.4345,-81.9647,2.745,5.83,1111122 
SCCF RECON,ioos:station:SCCF:16:1,2009-08-09T09:00:00Z,26.4345,-81.9647,2.593,5.01,1111122 
SCCF RECON,ioos:station:SCCF:16:1,2009-08-09T10:00:00Z,26.4345,-81.9647,2.495,5.0,1111122 
SCCF RECON,ioos:station:SCCF:16:1,2009-08-09T11:00:00Z,26.4345,-81.9647,2.401,5.32,1111122 
SCCF RECON,ioos:station:SCCF:16:1,2009-08-09T12:00:00Z,26.4345,-81.9647,2.321,5.6,1111122 
SCCF RECON,ioos:station:SCCF:16:1,2009-08-09T13:00:00Z,26.4345,-81.9647,2.223,5.44,1111122 
SCCF RECON,ioos:station:SCCF:16:1,2009-08-09T14:00:00Z,26.4345,-81.9647,2.234,5.13,1111122 
SCCF RECON,ioos:station:SCCF:16:1,2009-08-09T15:00:00Z,26.4345,-81.9647,2.41,5.63,1111122 
SCCF RECON,ioos:station:SCCF:16:1,2009-08-09T16:00:00Z,26.4345,-81.9647,2.607,5.71,1111122 
SCCF RECON,ioos:station:SCCF:16:1,2009-08-09T17:00:00Z,26.4345,-81.9647,2.722,6.04,1111122 
SCCF RECON,ioos:station:SCCF:16:1,2009-08-09T18:00:00Z,26.4345,-81.9647,2.783,6.09,1111122 
SCCF RECON,ioos:station:SCCF:16:1,2009-08-09T19:00:00Z,26.4345,-81.9647,2.788,6.04,1111122 
SCCF RECON,ioos:station:SCCF:16:1,2009-08-09T20:00:00Z,26.4345,-81.9647,2.74,6.08,1111122 
SCCF RECON,ioos:station:SCCF:16:1,2009-08-09T21:00:00Z,26.4345,-81.9647,2.636,5.95,1111122 
SCCF RECON,ioos:station:SCCF:16:1,2009-08-09T22:00:00Z,26.4345,-81.9647,2.51,6.07,1111122 
SCCF RECON,ioos:station:SCCF:16:1,2009-08-09T23:00:00Z,26.4345,-81.9647,2.454,6.04,1111122 
SCCF RECON,ioos:station:SCCF:16:1,2009-08-10T00:00:00Z,26.4345,-81.9647,2.287,6.33,1111122 
SCCF RECON,ioos:station:SCCF:16:1,2009-08-10T01:00:00Z,26.4345,-81.9647,2.237,5.77,1111122 
SCCF RECON,ioos:station:SCCF:16:1,2009-08-10T02:00:00Z,26.4345,-81.9647,2.202,6.52,1111122 
SCCF RECON,ioos:station:SCCF:16:1,2009-08-10T03:00:00Z,26.4345,-81.9647,2.28,6.29,1111122 
SCCF RECON,ioos:station:SCCF:16:1,2009-08-10T04:00:00Z,26.4345,-81.9647,2.47,5.84,1111122 
SCCF RECON,ioos:station:SCCF:16:1,2009-08-10T05:00:00Z,26.4345,-81.9647,2.643,6.13,1111122 
SCCF RECON,ioos:station:SCCF:16:1,2009-08-10T06:00:00Z,26.4345,-81.9647,2.705,5.96,1111122 
SCCF RECON,ioos:station:SCCF:16:1,2009-08-10T07:00:00Z,26.4345,-81.9647,2.745,5.71,1111122 
SCCF RECON,ioos:station:SCCF:16:1,2009-08-10T08:00:00Z,26.4345,-81.9647,2.743,5.57,1111122 
SCCF RECON,ioos:station:SCCF:16:1,2009-08-10T09:00:00Z,26.4345,-81.9647,2.713,5.44,1111122 
SCCF RECON,ioos:station:SCCF:16:1,2009-08-10T10:00:00Z,26.4345,-81.9647,2.616,5.38,1111122 
SCCF RECON,ioos:station:SCCF:16:1,2009-08-10T11:00:00Z,26.4345,-81.9647,2.469,5.15,1111122 
SCCF RECON,ioos:station:SCCF:16:1,2009-08-10T12:00:00Z,26.4345,-81.9647,2.333,4.79,1111122 
SCCF RECON,ioos:station:SCCF:16:1,2009-08-10T13:00:00Z,26.4345,-81.9647,2.245,5.08,1111122 
SCCF RECON,ioos:station:SCCF:16:1,2009-08-10T14:00:00Z,26.4345,-81.9647,2.232,5.14,1111122 
SCCF RECON,ioos:station:SCCF:16:1,2009-08-10T15:00:00Z,26.4345,-81.9647,2.315,5.29,1111122 
SCCF RECON,ioos:station:SCCF:16:1,2009-08-10T16:00:00Z,26.4345,-81.9647,2.449,5.42,1111122 
SCCF RECON,ioos:station:SCCF:16:1,2009-08-10T17:00:00Z,26.4345,-81.9647,2.594,6.03,1111122 
SCCF RECON,ioos:station:SCCF:16:1,2009-08-10T18:00:00Z,26.4345,-81.9647,2.673,6.45,1111122 
SCCF RECON,ioos:station:SCCF:16:1,2009-08-10T19:00:00Z,26.4345,-81.9647,2.733,6.61,1111122 
SCCF RECON,ioos:station:SCCF:16:1,2009-08-10T20:00:00Z,26.4345,-81.9647,2.755,6.58,1111122 
SCCF RECON,ioos:station:SCCF:16:1,2009-08-10T21:00:00Z,26.4345,-81.9647,2.741,6.53,1111122 
SCCF RECON,ioos:station:SCCF:16:1,2009-08-10T22:00:00Z,26.4345,-81.9647,2.591,6.19,1111122 
SCCF RECON,ioos:station:SCCF:16:1,2009-08-10T23:00:00Z,26.4345,-81.9647,2.508,6.12,1111122 
SCCF RECON,ioos:station:SCCF:16:1,2009-08-11T00:00:00Z,26.4345,-81.9647,2.398,6.37,1111122 
SCCF RECON,ioos:station:SCCF:16:1,2009-08-11T01:00:00Z,26.4345,-81.9647,2.343,6.11,1111122 
SCCF RECON,ioos:station:SCCF:16:1,2009-08-11T02:00:00Z,26.4345,-81.9647,2.27,5.75,1111122 
SCCF RECON,ioos:station:SCCF:16:1,2009-08-11T03:00:00Z,26.4345,-81.9647,2.345,5.81,1111122 
SCCF RECON,ioos:station:SCCF:16:1,2009-08-11T04:00:00Z,26.4345,-81.9647,2.488,5.73,1111122 
SCCF RECON,ioos:station:SCCF:16:1,2009-08-11T05:00:00Z,26.4345,-81.9647,2.632,5.91,1111122 
SCCF RECON,ioos:station:SCCF:16:1,2009-08-11T06:00:00Z,26.4345,-81.9647,2.719,5.74,1111122 
SCCF RECON,ioos:station:SCCF:16:1,2009-08-11T07:00:00Z,26.4345,-81.9647,2.789,5.5,1111122 
SCCF RECON,ioos:station:SCCF:16:1,2009-08-11T08:00:00Z,26.4345,-81.9647,2.83,5.17,1111122 
SCCF RECON,ioos:station:SCCF:16:1,2009-08-11T09:00:00Z,26.4345,-81.9647,2.797,5.13,1111122 
SCCF RECON,ioos:station:SCCF:16:1,2009-08-11T10:00:00Z,26.4345,-81.9647,2.705,4.81,1111122 
SCCF RECON,ioos:station:SCCF:16:1,2009-08-11T11:00:00Z,26.4345,-81.9647,2.582,5.04,1111122 
SCCF RECON,ioos:station:SCCF:16:1,2009-08-11T12:00:00Z,26.4345,-81.9647,2.416,4.97,1111122 
SCCF RECON,ioos:station:SCCF:16:1,2009-08-11T13:00:00Z,26.4345,-81.9647,2.277,5.23,1111122 
SCCF RECON,ioos:station:SCCF:16:1,2009-08-11T14:00:00Z,26.4345,-81.9647,2.213,4.97,1111122 
SCCF RECON,ioos:station:SCCF:16:1,2009-08-11T15:00:00Z,26.4345,-81.9647,2.199,4.99,1111122 
SCCF RECON,ioos:station:SCCF:16:1,2009-08-11T16:00:00Z,26.4345,-81.9647,2.241,5.06,1111122 
SCCF RECON,ioos:station:SCCF:16:1,2009-08-11T17:00:00Z,26.4345,-81.9647,2.393,5.0,1111122 
SCCF RECON,ioos:station:SCCF:16:1,2009-08-11T18:00:00Z,26.4345,-81.9647,2.53,5.47,1111122 
SCCF RECON,ioos:station:SCCF:16:1,2009-08-11T19:00:00Z,26.4345,-81.9647,2.609,6.36,1111122 